Weather History for CWAQ - April, 2014

Change the Weather History Date:

Thursday, April 24, 2014

  Actual Average Record
Temperature  
Mean Temperature 46 °F -  
Max Temperature 59 °F - - ()
Min Temperature 29 °F - - ()
Degree Days  
Heating Degree Days 20    
Moisture  
Dew Point 29 °F    
Average Humidity 57    
Maximum Humidity 87    
Minimum Humidity 21    
Precipitation  
Precipitation 0.00 in - - ()
Sea Level Pressure  
Sea Level Pressure 29.71 in    
Wind  
Wind Speed 10 mph ()    
Max Wind Speed 20 mph    
Max Gust Speed 26 mph    
T = Trace of Precipitation, MM = Missing Value Source: Averaged Metar Reports

Daily Weather History Graph

Daily Weather History Graph

Search for Another Location

Airport or City:

Trip Planner

Search our weather history database for the weather conditions in past years. The results will help you decide how hot, cold, wet, or windy it might be!

Date:

Astronomy

Apr. 24, 2014 Rise Set
Actual Time 5:53 AM CST 8:07 PM CST
Civil Twilight 5:18 AM CST 8:42 PM CST
Nautical Twilight 4:35 AM CST 9:25 PM CST
Astronomical Twilight 3:46 AM CST 10:15 PM CST
Moon 3:32 AM CST (4/24) 3:01 PM CST (4/24)
Length of Visible Light 15h 23m
Length of Day
14h 14m
Waning Crescent, 24% of the Moon is Illuminated
Apr 24
Waning Crescent
Apr 29
New
May 6
First Quarter
May 14
Full
May 21
Last Quarter

Hourly Weather History & Observations

Time (CST) Temp. Windchill Dew Point Humidity Pressure Visibility Wind Dir Wind Speed Gust Speed Precip Events Conditions
12:00 AM 39 °F - 35 °F 80% 29.63 in - SW 5.8 mph - -  
12:00 AM 39.4 °F 35.2 °F 35.1 °F 84% 29.63 in - SW 5.8 mph - N/A   Unknown
1:00 AM 38.5 °F 30.3 °F 29.5 °F 70% 29.64 in - SW 13.8 mph - N/A   Unknown
3:00 AM 34.7 °F 25.5 °F 27.0 °F 73% 29.66 in - WSW 13.8 mph - N/A   Unknown
4:00 AM 36.1 °F 27.7 °F 27.0 °F 69% 29.68 in - WSW 12.7 mph 20.7 mph N/A   Unknown
5:00 AM 34.5 °F 25.7 °F 27.0 °F 74% 29.69 in - West 12.7 mph - N/A   Unknown
6:00 AM 33 °F - 29 °F 82% 29.70 in - West 9.2 mph - -  
6:00 AM 32.9 °F 25.3 °F 29.5 °F 87% 29.70 in - West 9.2 mph - N/A   Unknown
7:00 AM 35.4 °F 29.0 °F 32.0 °F 87% 29.71 in - West 8.1 mph - N/A   Unknown
8:00 AM 39.4 °F 32.7 °F 34.2 °F 82% 29.73 in - West 10.4 mph - N/A   Unknown
9:00 AM 45.0 °F 37.6 °F 31.3 °F 59% 29.73 in - WNW 17.3 mph 23.0 mph N/A   Unknown
10:00 AM 48.2 °F - 32.9 °F 55% 29.74 in - WNW 19.6 mph - N/A   Unknown
11:00 AM 52.2 °F - 30.0 °F 43% 29.74 in - WNW 19.6 mph 26.5 mph N/A   Unknown
12:00 PM 52 °F - 26 °F 25% 29.74 in - WNW 16.1 mph - -  
12:00 PM 52.2 °F - 26.4 °F 37% 29.74 in - WNW 16.1 mph 21.9 mph N/A   Unknown
1:00 PM 53.4 °F - 29.3 °F 40% 29.73 in - West 17.3 mph 23.0 mph N/A   Unknown
2:00 PM 54.1 °F - 27.9 °F 36% 29.72 in - West 16.1 mph 25.3 mph N/A   Unknown
3:00 PM 59.2 °F - 24.8 °F 27% 29.70 in - West 13.8 mph 23.0 mph N/A   Unknown
4:00 PM 57.2 °F - 25.0 °F 29% 29.70 in - WNW 15.0 mph 24.2 mph N/A   Unknown
5:00 PM 53.8 °F - 26.4 °F 35% 29.70 in - NW 10.4 mph - N/A   Unknown
6:00 PM 56 °F - 27 °F 21% 29.70 in - NW 9.2 mph - -  
6:00 PM 55.8 °F - 26.8 °F 33% 29.70 in - NW 9.2 mph - N/A   Unknown
7:00 PM 50.7 °F - 25.9 °F 38% 29.71 in - NW 5.8 mph - N/A   Unknown
8:00 PM 45.1 °F 43.7 °F 30.4 °F 56% 29.71 in - WNW 3.5 mph - N/A   Unknown
9:00 PM 37.0 °F - 26.1 °F 65% 29.73 in - West 2.3 mph - N/A   Unknown
10:00 PM 34.0 °F - 26.6 °F 74% 29.74 in - WSW 2.3 mph - N/A   Unknown
11:00 PM 29.8 °F - 25.2 °F 83% 29.74 in - NW 2.3 mph - N/A   Unknown